Regional Weather Roundup
Issued by NWS Upton, NY

Current Version | Previous Version | Text Only | Print | Product List | Glossary On
Versions: 1 2 3 4 5 6 7 8 9 10 11 12 13 14 15 16 17 18 19 20 21 22 23 24 25 26 27
000
ASUS41 KOKX 221408
RWROKX

REGIONAL WEATHER ROUNDUP
NATIONAL WEATHER SERVICE NEW YORK NY
1000 AM EDT SAT APR 22 2017

NOTE: "FAIR" INDICATES FEW OR NO CLOUDS BELOW 12,000 FEET WITH NO
SIGNIFICANT WEATHER AND/OR OBSTRUCTIONS TO VISIBILITY.

NYZ071-072-176-178-NJZ106-104-221500-
NEW YORK CITY METRO AREA

CITY           SKY/WX    TMP DP  RH WIND       PRES   REMARKS
Central Park   CLOUDY    54  46  74 NE5       29.96R
Wall St Helipt CLOUDY    54  46  76 E6        29.95S
Bronx Bot Gard   N/A     54  46  76 E3        29.92F
LaGuardia APRT CLOUDY    53  48  83 E7        29.93S
Kennedy INTL   CLOUDY    53  49  86 NE8       29.95R
Breezy Point     N/A     52 N/A N/A NE6         N/A
Newark/Liberty CLOUDY    54  48  80 N8        29.94R
Teterboro      DRIZZLE   54  47  77 N5        29.93R
$$

NYZ177-179-078>081-221500-
LONG ISLAND NEW YORK

CITY           SKY/WX    TMP DP  RH WIND       PRES   REMARKS
Jones Beach      N/A     50 N/A N/A NE9         N/A
Matinecock PT    N/A     48 N/A N/A E7          N/A
Farmingdale    CLOUDY    50  46  86 NE5       29.95R
MacArthur/ISP  CLOUDY    49  47  93 NE8       29.94R
Shirley        LGT RAIN  48  46  93 N6        29.96R
Mt Sinai Harb    N/A     46 N/A N/A N7          N/A
Westhampton    LGT RAIN  48  44  86 N7        29.96R
East Hampton   CLOUDY    46  44  91 N3        29.94R
Montauk          N/A     47  45  93 N5        29.93
$$

NYZ052-065-067-221500-
HUDSON VALLEY

CITY           SKY/WX    TMP DP  RH WIND       PRES   REMARKS
White Plains   LGT RAIN  52  47  83 E3        29.93R
Larchmont Harb   N/A     48 N/A N/A E10         N/A
Croton O-T Hud   N/A     52 N/A N/A MISG        N/A
Newburgh       PTSUNNY   52  48  87 VRB6      29.95R
Montgomery     CLOUDY    53  48  83 N5        29.93S
Poughkeepsie   CLOUDY    52  47  83 NE7       29.93S
Albany         CLOUDY    49  40  71 W10       29.96S
$$

NJZ001-105-106-008-010-013-015-019>022-104-221500-
NEW JERSEY

CITY           SKY/WX    TMP DP  RH WIND       PRES   REMARKS
Newark/Liberty CLOUDY    54  48  80 N8        29.94R
Teterboro      DRIZZLE   54  47  77 N5        29.93R
Caldwell       LGT RAIN  54  46  74 N5        29.95R
Somerville     CLOUDY    55  51  86 N3        29.92S
Linden         NOT AVBL
Sussex         CLOUDY    52  46  80 CALM      29.95R
Andover          N/A     52  43  71 N3        29.95R
Trenton        CLOUDY    56  51  84 NE5       29.93S
Millville      LGT RAIN  54  53  97 NE9       29.91S FOG
Atlantic City  CLOUDY    53  50  89 N8        29.92R
Wrightstown    CLOUDY    52  50  93 NE7       29.91F
Toms River     LGT RAIN  51  50  96 NE7       29.93F FOG
Belmar         CLOUDY    51  49  92 E5        29.95S
$$

PAZ047>061-062-071-221500-
EASTERN PENNSYLVANIA

CITY           SKY/WX    TMP DP  RH WIND       PRES   REMARKS
Philadelphia   LGT RAIN  57  48  72 N9        29.93S
Allentown      CLOUDY    55  43  63 N7        29.95R
Scranton       CLOUDY    50  41  71 N14       29.95S
$$

CTZ002-004>006-009-010-012-RIZ004-006-007-MAZ004-011-015-221500-
SOUTHERN NEW ENGLAND
 IN CT

CITY           SKY/WX    TMP DP  RH WIND       PRES   REMARKS
Bradley INTL   LGT RAIN  46  43  89 N7        29.97R
Hartford       LGT RAIN  47  43  86 N8        29.95S
Danbury        LGT RAIN  48  46  93 NE5       29.94F
Wtrbury/Oxford CLOUDY    46  39  76 NE9       29.95S
Bridgeport     CLOUDY    51  44  77 N8        29.93S
Meriden        LGT RAIN  49  43  80 N6        29.94S
New Haven      CLOUDY    48  44  86 N9        29.94R
Chester        DRIZZLE   46  45  93 N7G15     29.93R
Groton         CLOUDY    49  44  83 N9        29.92R
Wilimantic     LGT RAIN  48  43  82 N8        29.95R

 IN RI

CITY           SKY/WX    TMP DP  RH WIND       PRES   REMARKS
Providence     CLOUDY    46  44  93 N15       29.93F
Block Island   CLOUDY    46  44  93 N10       29.92R
Westerly       CLOUDY    49  45  86 N9        29.92S
 IN MA

CITY           SKY/WX    TMP DP  RH WIND       PRES   REMARKS
Boston         CLOUDY    44  43  96 N6        29.97F
Worcester      LGT RAIN  39  37  92 N9        29.94S VSB<1/4 WCI  33
Westfield      CLOUDY    45  43  93 N7        29.97R
Provincetown   CLOUDY    45  44  97 NE12      29.93S
Nantucket      CLOUDY    48  46  93 N15       29.87S
$$

ANZ330-335-338-340-345-350-353-355-221500-
COASTAL MARINE OBSERVATIONS


STATION/POSITION TIME  SKY/WX   TEMP    WIND        PRES    VSBY  WAVE
                                AIR SEA DIR/SP/G                  HT/PER
                 (UTC)          (F)     (DEG/KT/KT) (MB)    (MI)  (FT/S)
NY HARB ENTRANCE 1250            50 50   30/  6/  6 1013.6          4/10
20 S FIRE ISLAND 1350            47 47   30/  8/ 10 1013.9          5/13
GREAT SOUTH BAY  1330            49 56   10/  8/ 10   N/A
23 SSW MONTAUK P 1250            45 45              1012.7          6/12
15 E BARNEGAT LI 1330               50                N/A           5/12
HUDSON CANYON    1250            47 47   40/  8/ 10 1012.4          6/12
KINGS POINT      1336            51 46  120/  3/  5 1013.3
EXECUTION ROCKS  NOT AVBL
CENTRAL LI SOUND 1330            47      20/  4/  6   N/A           1
EASTERN LI SOUND NOT AVBL
ROBBINS REEF     1336            53     360/  7/  8 1014.0
$$


>>>>>>>>>>>>>>>>>>>>>>>>>>>> KEY <<<<<<<<<<<<<<<<<<<<<<<<<<<
>                                                          <
>     SKY/WX - Sky Condition/Present Weather               <
>     TMP    - Temperature in Fahrenheit                   <
>     DP     - Dew Point in Fahrenheit                     <
>     RH     - Relative Humidity in Percent                <
>     WIND   - Direction (from) and Speed in MPH           <
>     PRES   - Mean Sea Level Pressure (inches of Hg)      <
>     WCI    - Wind Chill Index                            <
>     VSB    - VISIBILITY IN MILES                         <
>     HX     - HEAT INDEX                                  <
>     TC     - TEMPERATURE IN CELSIUS                      <
>     VRB    - VARIABLE WIND DIRECTION                     <
>                                                          <
>>>>>>>>>>>>>>>>>>>>>>>>>>>> KEY <<<<<<<<<<<<<<<<<<<<<<<<<<<




USA.gov is the U.S. government's official web portal to all federal, state and local government web resources and services.